Weather in Paderborn

Germany     51°43′14″N   8°44′55″E
temp.,
°C
wind,
m/s
gust,
m/s
humid.,
%
clouds,
%
prec.,
mm/h
press.,
hPa
HPBL,
m
19 september, sun
sun1923:00+14e4885100 0.0 1017300
02:00+14ese4987100 0.1 1017400
05:00+13e488587 0.0 1016394
08:00+11ese499110 0.0 1017320
11:00+14ese567471 0.0 1017655
14:00+17e446131 0.0 10171069
17:00+17e445514 0.0 10161260
20:00+12ene48746 0.0 1017211
20 september, mon
mon2023:00+10ese36765 0.0 1018120
02:00+9ese34785 0.0 101876
05:00+8e348250 0.0 101988
08:00+8e36822 0.0 1020155
11:00+14e44603 0.0 1021718
14:00+16ne33529 0.0 10211260
17:00+16ne33525 0.0 10211265
20:00+11ne357033 0.0 102369
21 september, tue
tue2123:00+9ene11741 0.0 102511
02:00+8e11771 0.0 102610
05:00+7n1180100 0.0 102710
08:00+8s0081100 0.0 102813
11:00+12nnw2264100 0.0 1029496
14:00+15wnw2254100 0.0 10281057
17:00+15nw3355100 0.0 10291011
20:00+11nw1174100 0.0 103010
22 september, wed
wed2223:00+9sw2281100 0.0 103010
02:00+8wsw2287100 0.0 103013
05:00+7wsw2293100 0.0 102920
08:00+8wsw1292100 0.0 102946
11:00+13w3470100 0.0 1029508
14:00+17w45545 0.0 1027849
17:00+18w45510 0.0 1025914
20:00+13wsw22720 0.0 102416
23 september, thu
thu2323:00+11sw238095 0.0 102331
02:00+10sw3780100 0.0 1021124
05:00+11wsw41381100 0.0 1019361
08:00+12wsw61280100 0.0 1018540
11:00+12w61191100 0.4 1017725
14:00+14w61082100 0.6 10161089
17:00+14w6107799 0.3 10151278
20:00+11w51176100 0.4 1014379